Tracking 20241 objects as of 26-Jan-2020
HD Live streaming from Space Station
objects crossing your sky now

FENGYUN 1C DEB

Track FENGYUN 1C DEB now!
10-day predictions


NORAD ID: 30826
Int'l Code: 1999-025AVL
Perigee: 554.2 km
Apogee: 830.3 km
Inclination: 98.9 °
Period: 98.5 minutes
Semi major axis: 7063 km
RCS: 0.0008 m2 (small)
Launch date: May 10, 1999
Source: People's Republic of China (PRC)
Launch site: Taiyaun Space Center, China (TSC)

Note: This is SATELLITE DEBRIS
aabbcc
Your satellite tracking list
Your tracking list is empty




NASA's NSSDC Master Catalog

Two Line Element Set (TLE):
1 30826U 99025AVL 20026.26482338 +.00000114 +00000-0 +27597-4 0  9990
2 30826 098.8886 020.0874 0195478 179.8773 192.0379 14.62505505687831
Source of the keplerian elements: AFSPC